This demonstration page uses our WeatherBlox Daily Observations layout. Learn more.

Left ArrowRight Arrow

39.12711, -84.51439

Hourly Observations for June 13, 2018

Temp ( °F °C ) Dew Point ( °F °C ) Humidity (%) Winds ( mph kmh ) Pressure ( in mb ) Visibility ( mi km ) Precip ( " mm )
12:49 am 00:49 Clear with Nearby Thunderstorms 72 22 72 22 100 100 SSW 8 13 29.91 1013 8 13 0.08 2.03
12:53 am 00:53 Clear with Nearby Thunderstorms 71 21.7 71 21.7 100 100 SSW 7 11 29.93 1013 8 13 0.08 2.03
1:04 am 01:04 Clear with Light Rain 71 21.7 70 21.1 96 96 SSW 10 17 29.91 1013 8 13 0.01 0.25
1:24 am 01:24 Clear with Nearby Thunderstorms 70 21.1 70 21.1 100 100 S 7 11 29.91 1013 8 13 0.03 0.76
1:39 am 01:39 Mostly Clear with Light Rain 70 21.1 70 21.1 100 100 N 3 6 29.91 1013 9 14 0.05 1.27
1:53 am 01:53 Mostly Clear 70 21.1 70 21.1 100 100 N N/A 29.92 1013 10 16 0.05 1.27
2:53 am 02:53 Clear 70 21.1 69 20.6 97 97 N N/A 29.93 1013 10 16 N/A
3:35 am 03:35 Mostly Cloudy 70 21.1 69 20.6 97 97 SSW 6 9 29.91 1013 10 16 N/A
3:53 am 03:53 Cloudy 69 20.6 69 20.6 100 100 S 6 9 29.93 1014 10 16 N/A
4:36 am 04:36 Partly Cloudy 69 20.6 69 20.6 100 100 SSW 6 9 29.91 1013 10 16 N/A
4:51 am 04:51 Mostly Clear 70 21 70 21 100 100 N N/A 29.91 1013 10 16 N/A
4:53 am 04:53 Mostly Clear 69 20.6 69 20.6 100 100 N N/A 29.91 1013 10 16 N/A
5:53 am 05:53 Mostly Clear 69 20.6 68 20 96 96 SW 3 6 29.92 1013 10 16 N/A
6:16 am 06:16 Mostly Cloudy 68 20 68 20 100 100 S 5 7 29.91 1013 8 13 N/A
6:50 am 06:50 Partly Cloudy 70 21 70 21 100 100 SSW 3 6 29.91 1013 8 13 N/A
6:53 am 06:53 Mostly Cloudy 69 20.6 69 20.6 100 100 N N/A 29.94 1014 9 14 N/A
7:14 am 07:14 Mostly Cloudy 69 20.6 69 20.6 100 100 S 3 6 29.91 1013 8 13 N/A
7:53 am 07:53 Mostly Cloudy 71 21.7 70 21.1 96 96 SSW 3 6 29.95 1014 8 13 N/A
8:49 am 08:49 Partly Cloudy 73 23 72 22 94 94 WSW 7 11 29.94 1014 10 16 N/A
8:53 am 08:53 Mostly Sunny 75 23.9 71 21.7 88 88 WSW 8 13 29.96 1015 10 16 N/A
9:53 am 09:53 Mostly Sunny 77 25 71 21.7 82 82 WSW 10 17 29.96 1015 10 16 N/A
10:53 am 10:53 Cloudy 79 26.1 71 21.7 77 77 W 6 9 29.96 1015 10 16 N/A
11:53 am 11:53 Mostly Cloudy 80 26.7 71 21.7 74 74 WSW 9 15 29.96 1015 10 16 N/A
12:53 pm 12:53 Mostly Cloudy 83 28.3 74 23.3 74 74 SW 10 17 29.96 1014 10 16 N/A
1:53 pm 13:53 Cloudy 83 28.3 73 22.8 72 72 SW 8 13 29.95 1014 10 16 N/A
2:53 pm 14:53 Mostly Cloudy 84 28.9 73 22.8 70 70 WSW 9 15 29.93 1013 10 16 N/A
3:53 pm 15:53 Mostly Cloudy 85 29.4 73 22.8 68 68 SW 9 15 29.91 1013 10 16 N/A
4:53 pm 16:53 Partly Cloudy 87 30.6 73 22.8 63 63 W 12 19 29.92 1013 10 16 N/A
5:53 pm 17:53 Partly Cloudy 83 28.3 72 22.2 70 70 WSW 10 17 29.91 1013 10 16 N/A
6:53 pm 18:53 Cloudy 82 27.8 72 22.2 72 72 WSW 10 17 29.91 1013 10 16 N/A
7:53 pm 19:53 Mostly Sunny 80 26.7 69 20.6 69 69 NNW 9 15 29.92 1013 10 16 N/A
8:53 pm 20:53 Mostly Sunny 78 25.6 69 20.6 74 74 NW 6 9 29.93 1013 10 16 N/A
9:53 pm 21:53 Clear 75 23.9 68 20 79 79 W 6 9 29.95 1014 10 16 N/A
10:53 pm 22:53 Partly Cloudy 71 21.7 69 20.6 94 94 S 3 6 29.98 1015 10 16 N/A
11:53 pm 23:53 Partly Cloudy 70 21.1 69 20.6 97 97 S 3 6 30.00 1016 10 16 N/A

Powered by AerisWeather